Location: Guilderland
(42.7045°N, 73.9115°W)
Time: 03:20:43
(UTC+00:00)

ERBS - Pass Details

Date: 24 January 2020
Orbit: 412 x 428 km, 57.0° (Epoch: 16 February)

Event Time Altitude Azimuth Distance (km) Brightness Sun altitude
Rises 22:28:39 0° 242° (WSW) 2,349 8.5 -6.0°
Reaches altitude 10° 22:30:48 10° 249° (WSW) 1,486 6.9 -6.4°
Maximum altitude 22:33:58 41° 322° (NW) 616 3.3 -6.9°
Drops below altitude 10° 22:37:08 10° 34° (NE) 1,488 4.6 -7.5°
Enters shadow 22:37:50 - 38° (NE) 1,761 4.9 -7.6°
